• En España
  • Lista de países
  • Para 7 días
  • Temperatura del agua
  • Mapa Satelital
  • El tiempo en el mapa
  • Informadores
  • user-avatar
    Iniciar sesión

    Tiempo cada hora Staryy Berezay

    Hoy, 20 Julio, Viernes

    Tiempo Temperatura Precipitaciones Viento Presión Humedad
    00:00 +18°C° 0 mm 2 mps 739 mmHg 93%
    01:00 +18°C° 0 mm 2 mps 739 mmHg 95%
    02:00 +18°C° 0 mm 2 mps 739 mmHg 96%
    03:00 +18°C° 0 mm 3 mps 739 mmHg 96%
    04:00 +18°C° 0 mm 3 mps 739 mmHg 96%
    05:00 +19°C° 0 mm 3 mps 739 mmHg 95%
    06:00 +19°C° 0,1 mm 3 mps 739 mmHg 94%
    07:00 +19°C° 0,1 mm 3 mps 739 mmHg 93%
    08:00 +19°C° 0,1 mm 3 mps 739 mmHg 92%
    09:00 +20°C° 0,1 mm 3 mps 739 mmHg 91%
    10:00 +20°C° 0,1 mm 3 mps 739 mmHg 90%
    11:00 +21°C° 0,1 mm 3 mps 739 mmHg 89%
    12:00 +21°C° 0,1 mm 3 mps 739 mmHg 86%
    13:00 +22°C° 0,1 mm 3 mps 739 mmHg 84%
    14:00 +22°C° 0,1 mm 3 mps 738 mmHg 82%
    15:00 +22°C° 0,2 mm 3 mps 738 mmHg 82%
    16:00 +24°C° 0,2 mm 3 mps 738 mmHg 81%
    17:00 +24°C° 0,2 mm 3 mps 738 mmHg 81%
    18:00 +22°C° 0,4 mm 3 mps 738 mmHg 86%
    19:00 +21°C° 0,4 mm 2 mps 738 mmHg 91%
    20:00 +20°C° 0,4 mm 2 mps 738 mmHg 96%
    21:00 +20°C° 0,8 mm 2 mps 738 mmHg 97%
    22:00 +19°C° 0,8 mm 2 mps 738 mmHg 97%
    23:00 +19°C° 0,8 mm 2 mps 738 mmHg 98%

    Mañana, 21 Julio, Sábado

    Tiempo Temperatura Precipitaciones Viento Presión Humedad
    00:00 +19°C° 0 mm 2 mps 738 mmHg 98%
    01:00 +19°C° 0 mm 2 mps 738 mmHg 98%
    02:00 +19°C° 0 mm 2 mps 738 mmHg 98%
    03:00 +19°C° 0,2 mm 2 mps 738 mmHg 98%
    04:00 +19°C° 0,2 mm 2 mps 738 mmHg 98%
    05:00 +20°C° 0,2 mm 2 mps 738 mmHg 98%
    06:00 +20°C° 0,2 mm 3 mps 738 mmHg 97%
    07:00 +20°C° 0,2 mm 3 mps 738 mmHg 97%
    08:00 +20°C° 0,2 mm 3 mps 738 mmHg 96%
    09:00 +21°C° 0 mm 3 mps 739 mmHg 94%
    10:00 +21°C° 0 mm 3 mps 739 mmHg 93%
    11:00 +22°C° 0 mm 3 mps 739 mmHg 91%
    12:00 +22°C° 0 mm 3 mps 739 mmHg 89%
    13:00 +24°C° 0 mm 3 mps 739 mmHg 87%
    14:00 +24°C° 0 mm 3 mps 738 mmHg 85%
    15:00 +24°C° 0 mm 3 mps 738 mmHg 84%
    16:00 +24°C° 0 mm 3 mps 738 mmHg 83%
    17:00 +24°C° 0 mm 3 mps 739 mmHg 82%
    18:00 +24°C° 0 mm 3 mps 739 mmHg 85%
    19:00 +22°C° 0 mm 3 mps 739 mmHg 88%
    20:00 +23°C° 0 mm 2 mps 739 mmHg 92%
    21:00 +21°C° 0,1 mm 2 mps 739 mmHg 94%
    22:00 +20°C° 0,1 mm 2 mps 739 mmHg 96%
    23:00 +20°C° 0,1 mm 3 mps 739 mmHg 98%

    Pasado mañana, 22 Julio, Domingo

    Tiempo Temperatura Precipitaciones Viento Presión Humedad
    00:00 +20°C° 0 mm 3 mps 739 mmHg 97%
    01:00 +20°C° 0 mm 3 mps 739 mmHg 97%
    02:00 +20°C° 0 mm 3 mps 739 mmHg 96%
    03:00 +19°C° 0 mm 3 mps 739 mmHg 96%
    04:00 +19°C° 0 mm 3 mps 739 mmHg 96%
    05:00 +19°C° 0 mm 3 mps 739 mmHg 95%
    06:00 +19°C° 0 mm 3 mps 739 mmHg 94%
    07:00 +19°C° 0 mm 3 mps 739 mmHg 94%
    08:00 +19°C° 0 mm 3 mps 739 mmHg 93%
    09:00 +19°C° 0 mm 3 mps 739 mmHg 91%
    10:00 +19°C° 0 mm 3 mps 739 mmHg 90%
    11:00 +20°C° 0 mm 3 mps 739 mmHg 89%
    12:00 +20°C° 0 mm 3 mps 739 mmHg 88%
    13:00 +20°C° 0 mm 3 mps 739 mmHg 86%
    14:00 +21°C° 0 mm 3 mps 739 mmHg 85%
    15:00 +21°C° 0 mm 3 mps 739 mmHg 87%
    16:00 +21°C° 0 mm 3 mps 739 mmHg 88%
    17:00 +21°C° 0 mm 3 mps 739 mmHg 89%
    18:00 +21°C° 0 mm 3 mps 739 mmHg 90%
    19:00 +20°C° 0 mm 3 mps 739 mmHg 92%
    20:00 +20°C° 0 mm 3 mps 739 mmHg 93%
    21:00 +20°C° 0,1 mm 3 mps 739 mmHg 94%
    22:00 +20°C° 0,1 mm 3 mps 739 mmHg 95%
    23:00 +19°C° 0,1 mm 3 mps 739 mmHg 96%

    23 Julio, Lunes

    Tiempo Temperatura Precipitaciones Viento Presión Humedad
    00:00 +19°C° 0,1 mm 3 mps 739 mmHg 96%
    01:00 +19°C° 0,1 mm 3 mps 739 mmHg 96%
    02:00 +19°C° 0,1 mm 3 mps 739 mmHg 97%
    03:00 +19°C° 0 mm 3 mps 739 mmHg 97%
    04:00 +19°C° 0 mm 3 mps 739 mmHg 96%
    05:00 +19°C° 0 mm 3 mps 739 mmHg 96%
    06:00 +19°C° 0 mm 3 mps 739 mmHg 95%
    07:00 +19°C° 0 mm 3 mps 739 mmHg 94%
    08:00 +19°C° 0 mm 3 mps 739 mmHg 92%
    09:00 +20°C° 0,1 mm 3 mps 739 mmHg 91%
    10:00 +20°C° 0,1 mm 3 mps 739 mmHg 90%
    11:00 +21°C° 0,1 mm 3 mps 739 mmHg 88%
    12:00 +21°C° 0,1 mm 3 mps 739 mmHg 86%
    13:00 +22°C° 0,1 mm 3 mps 739 mmHg 84%
    14:00 +22°C° 0,1 mm 3 mps 739 mmHg 82%
    15:00 +22°C° 0,1 mm 3 mps 739 mmHg 84%
    16:00 +22°C° 0,1 mm 3 mps 739 mmHg 85%
    17:00 +22°C° 0,1 mm 3 mps 739 mmHg 87%
    18:00 +21°C° 0 mm 3 mps 739 mmHg 89%
    19:00 +20°C° 0 mm 2 mps 740 mmHg 91%
    20:00 +20°C° 0 mm 2 mps 740 mmHg 94%
    21:00 +19°C° 0 mm 2 mps 740 mmHg 95%
    22:00 +19°C° 0 mm 2 mps 740 mmHg 97%
    23:00 +18°C° 0 mm 2 mps 740 mmHg 98%

    24 Julio, Martes

    Tiempo Temperatura Precipitaciones Viento Presión Humedad
    00:00 +18°C° 0 mm 2 mps 740 mmHg 98%
    01:00 +18°C° 0 mm 2 mps 739 mmHg 99%
    02:00 +18°C° 0 mm 2 mps 739 mmHg 99%
    03:00 +19°C° 0 mm 2 mps 740 mmHg 98%
    04:00 +19°C° 0 mm 2 mps 740 mmHg 97%
    05:00 +19°C° 0 mm 2 mps 740 mmHg 97%
    06:00 +19°C° 0 mm 2 mps 740 mmHg 96%
    07:00 +20°C° 0 mm 2 mps 740 mmHg 95%
    08:00 +20°C° 0 mm 3 mps 740 mmHg 93%
    09:00 +20°C° 0 mm 2 mps 741 mmHg 92%
    10:00 +21°C° 0 mm 2 mps 741 mmHg 92%
    11:00 +21°C° 0 mm 2 mps 741 mmHg 91%
    12:00 +23°C° 0,2 mm 2 mps 741 mmHg 87%
    13:00 +24°C° 0,2 mm 3 mps 741 mmHg 84%
    14:00 +25°C° 0,2 mm 3 mps 741 mmHg 80%
    15:00 +25°C° 0,3 mm 3 mps 741 mmHg 81%
    16:00 +25°C° 0,3 mm 3 mps 741 mmHg 81%
    17:00 +25°C° 0,3 mm 3 mps 741 mmHg 82%
    18:00 +24°C° 0,1 mm 2 mps 742 mmHg 86%
    19:00 +23°C° 0,1 mm 2 mps 742 mmHg 89%
    20:00 +21°C° 0,1 mm 2 mps 742 mmHg 93%
    21:00 +21°C° 0 mm 2 mps 742 mmHg 95%
    22:00 +20°C° 0 mm 2 mps 742 mmHg 96%
    23:00 +19°C° 0 mm 2 mps 742 mmHg 97%

    25 Julio, Miércoles

    Tiempo Temperatura Precipitaciones Viento Presión Humedad
    00:00 +19°C° 0 mm 2 mps 742 mmHg 98%
    01:00 +19°C° 0 mm 2 mps 742 mmHg 98%
    02:00 +19°C° 0 mm 2 mps 743 mmHg 98%
    03:00 +19°C° 0 mm 2 mps 743 mmHg 98%
    04:00 +19°C° 0 mm 2 mps 743 mmHg 97%
    05:00 +19°C° 0 mm 2 mps 743 mmHg 97%
    06:00 +21°C° 0 mm 2 mps 744 mmHg 91%
    07:00 +23°C° 0 mm 2 mps 744 mmHg 86%
    08:00 +25°C° 0 mm 3 mps 744 mmHg 80%
    09:00 +26°C° 0,3 mm 3 mps 744 mmHg 76%
    10:00 +27°C° 0,3 mm 3 mps 744 mmHg 73%
    11:00 +28°C° 0,3 mm 3 mps 744 mmHg 69%
    12:00 +28°C° 0,7 mm 3 mps 744 mmHg 70%
    13:00 +28°C° 0,7 mm 3 mps 744 mmHg 70%
    14:00 +28°C° 0,7 mm 3 mps 744 mmHg 71%
    15:00 +28°C° 0,5 mm 3 mps 744 mmHg 73%
    16:00 +27°C° 0,5 mm 2 mps 744 mmHg 76%
    17:00 +27°C° 0,5 mm 2 mps 744 mmHg 78%
    18:00 +25°C° 0,2 mm 2 mps 744 mmHg 83%
    19:00 +24°C° 0,2 mm 2 mps 745 mmHg 87%
    20:00 +22°C° 0,2 mm 1 mps 745 mmHg 92%
    21:00 +22°C° 0,1 mm 1 mps 745 mmHg 93%
    22:00 +21°C° 0,1 mm 1 mps 745 mmHg 94%
    23:00 +20°C° 0,1 mm 1 mps 745 mmHg 95%
    Mostrar más